Location: Kamms Corner
(44.7255°N, 108.9326°W)
Time: 02:30:34
(UTC+00:00)

Tiangong - Visible Passes

Search period start: 21 January 2022 00:00
Search period end: 31 January 2022 00:00
Orbit: 383 x 386 km, 41.5° (Epoch: 20 January)

Date Brightness Start Highest point End Pass type
(mag) Time Alt. Az. Time Alt. Az. Time Alt. Az.
28 Jan 3.0 02:03:47 10° SSW 02:05:46 20° S 02:05:46 20° S visible
29 Jan 3.4 01:04:49 10° S 01:06:37 14° SSE 01:08:26 10° ESE visible
29 Jan 3.6 02:39:59 10° WSW 02:41:08 19° SW 02:41:08 19° SW visible
30 Jan 2.4 01:40:25 10° SW 01:43:12 29° SSE 01:44:13 24° SE visible
